Terminal Aerodrome Forecast
Issued by NWS

Home | Current Version | Previous Version | Text Only | Print | Product List | Glossary On
Versions: 1 2 3 4 5 6 7 8 9 10 11 12 13 14 15 16 17 18
000
FTUS42 KMLB 230500
TAFSUA
TAF
KSUA 230525Z 2306/2406 27003KT P6SM SCT250
      TEMPO 2309/2313 5SM BR SCT006
     FM231400 29005KT P6SM FEW020
     FM231700 06009KT P6SM FEW040=

USA.gov is the U.S. government's official web portal to all federal, state and local government web resources and services.